Year,Month,Day,Hour,Minute,Value (Times are PST for windspeed in km/hr)
2007,11,12,00,00,13.70
2007,11,12,00,01,4.80
2007,11,12,00,02,4.80
2007,11,12,00,03,4.80
2007,11,12,00,04,4.80
2007,11,12,00,05,6.70
2007,11,12,00,06,10.30
2007,11,12,00,07,4.40
2007,11,12,00,08,12.20
2007,11,12,00,09,7.20
2007,11,12,00,10,19.20
2007,11,12,00,11,15.80
2007,11,12,00,12,10.20
2007,11,12,00,13,16.30
2007,11,12,00,14,7.10
2007,11,12,00,15,12.20
2007,11,12,00,16,6.80
2007,11,12,00,17,11.00
2007,11,12,00,18,4.90
2007,11,12,00,19,14.50
2007,11,12,00,20,8.90
2007,11,12,00,21,18.40
2007,11,12,00,22,14.40
2007,11,12,00,23,15.40
2007,11,12,00,24,14.30
2007,11,12,00,25,9.70
2007,11,12,00,26,7.30
2007,11,12,00,27,12.90
2007,11,12,00,28,10.80
2007,11,12,00,29,10.20
2007,11,12,00,30,9.70
2007,11,12,00,31,9.70
2007,11,12,00,32,7.30
2007,11,12,00,33,8.10
2007,11,12,00,34,4.70
2007,11,12,00,35,4.90
2007,11,12,00,36,13.80
2007,11,12,00,37,9.70
2007,11,12,00,38,12.10
2007,11,12,00,39,12.50
2007,11,12,00,40,4.20
2007,11,12,00,41,8.40
2007,11,12,00,42,5.50
2007,11,12,00,43,7.80
2007,11,12,00,44,12.90
2007,11,12,00,45,11.30
2007,11,12,00,46,8.50
2007,11,12,00,47,13.00
2007,11,12,00,48,10.10
2007,11,12,00,49,13.30
2007,11,12,00,50,9.30
2007,11,12,00,51,1.90
2007,11,12,00,52,5.30
2007,11,12,00,53,6.00
2007,11,12,00,54,6.40
2007,11,12,00,55,3.30
2007,11,12,00,56,6.10
2007,11,12,00,57,2.90
2007,11,12,00,58,7.70
2007,11,12,00,59,12.70
2007,11,12,01,00,5.80
2007,11,12,01,01,8.40
2007,11,12,01,02,7.10
2007,11,12,01,03,4.30
2007,11,12,01,04,4.40
2007,11,12,01,05,6.00
2007,11,12,01,06,11.60
2007,11,12,01,07,4.10
2007,11,12,01,08,8.30
2007,11,12,01,09,12.70
2007,11,12,01,10,7.90
2007,11,12,01,11,8.00
2007,11,12,01,12,4.00
2007,11,12,01,13,5.10
2007,11,12,01,14,6.30
2007,11,12,01,15,3.40
2007,11,12,01,16,6.40
2007,11,12,01,17,10.30
2007,11,12,01,18,7.40
2007,11,12,01,19,8.60
2007,11,12,01,20,6.70
2007,11,12,01,21,9.00
2007,11,12,01,22,2.20
2007,11,12,01,23,3.00
2007,11,12,01,24,4.60
2007,11,12,01,25,9.30
2007,11,12,01,26,3.90
2007,11,12,01,27,7.60
2007,11,12,01,28,9.10
2007,11,12,01,29,5.60
2007,11,12,01,30,6.50
2007,11,12,01,31,11.70
2007,11,12,01,32,5.60
2007,11,12,01,33,3.80
2007,11,12,01,34,4.40
2007,11,12,01,35,5.70
2007,11,12,01,36,7.90
2007,11,12,01,37,3.60
2007,11,12,01,38,2.10
2007,11,12,01,39,3.80
2007,11,12,01,40,2.30
2007,11,12,01,41,8.00
2007,11,12,01,42,6.80
2007,11,12,01,43,2.70
2007,11,12,01,44,8.40
2007,11,12,01,45,15.00
2007,11,12,01,46,12.50
2007,11,12,01,47,10.90
2007,11,12,01,48,17.50
2007,11,12,01,49,7.90
2007,11,12,01,50,11.60
2007,11,12,01,51,9.40
2007,11,12,01,52,7.70
2007,11,12,01,53,6.70
2007,11,12,01,54,1.30
2007,11,12,01,55,3.50
2007,11,12,01,56,3.50
2007,11,12,01,57,3.40
2007,11,12,01,58,4.30
2007,11,12,01,59,6.40
2007,11,12,02,00,14.00
2007,11,12,02,01,11.40
2007,11,12,02,02,12.90
2007,11,12,02,03,10.80
2007,11,12,02,04,10.80
2007,11,12,02,05,7.60
2007,11,12,02,06,4.20
2007,11,12,02,07,10.00
2007,11,12,02,08,14.30
2007,11,12,02,09,6.90
2007,11,12,02,10,8.50
2007,11,12,02,11,6.00
2007,11,12,02,12,7.50
2007,11,12,02,13,7.80
2007,11,12,02,14,5.30
2007,11,12,02,15,14.40
2007,11,12,02,16,10.70
2007,11,12,02,17,4.70
2007,11,12,02,18,8.50
2007,11,12,02,19,11.90
2007,11,12,02,20,18.50
2007,11,12,02,21,11.00
2007,11,12,02,22,20.50
2007,11,12,02,23,10.20
2007,11,12,02,24,13.20
2007,11,12,02,25,13.10
2007,11,12,02,26,12.50
2007,11,12,02,27,10.10
2007,11,12,02,28,15.60
2007,11,12,02,29,12.00
2007,11,12,02,30,12.50
2007,11,12,02,31,21.50
2007,11,12,02,32,12.80
2007,11,12,02,33,19.00
2007,11,12,02,34,20.00
2007,11,12,02,35,10.90
2007,11,12,02,36,8.40
2007,11,12,02,37,7.80
2007,11,12,02,38,15.80
2007,11,12,02,39,6.70
2007,11,12,02,40,10.90
2007,11,12,02,41,13.80
2007,11,12,02,42,11.70
2007,11,12,02,43,8.90
2007,11,12,02,44,6.20
2007,11,12,02,45,8.50
2007,11,12,02,46,12.30
2007,11,12,02,47,11.70
2007,11,12,02,48,18.30
2007,11,12,02,49,8.90
2007,11,12,02,50,3.90
2007,11,12,02,51,4.50
2007,11,12,02,52,3.10
2007,11,12,02,53,3.10
2007,11,12,02,54,2.40
2007,11,12,02,55,13.20
2007,11,12,02,56,13.30
2007,11,12,02,57,7.70
2007,11,12,02,58,16.10
2007,11,12,02,59,6.80
2007,11,12,03,00,2.90
2007,11,12,03,01,8.50
2007,11,12,03,02,5.80
2007,11,12,03,03,13.10
2007,11,12,03,04,5.60
2007,11,12,03,05,1.90
2007,11,12,03,06,7.30
2007,11,12,03,07,4.00
2007,11,12,03,08,6.90
2007,11,12,03,09,3.50
2007,11,12,03,10,7.20
2007,11,12,03,11,3.50
2007,11,12,03,12,4.20
2007,11,12,03,13,7.10
2007,11,12,03,14,2.70
2007,11,12,03,15,2.90
2007,11,12,03,16,2.00
2007,11,12,03,17,3.50
2007,11,12,03,18,5.30
2007,11,12,03,19,2.30
2007,11,12,03,20,0.50
2007,11,12,03,21,2.30
2007,11,12,03,22,0.50
2007,11,12,03,23,3.20
2007,11,12,03,24,5.70
2007,11,12,03,25,5.50
2007,11,12,03,26,5.10
2007,11,12,03,27,6.00
2007,11,12,03,28,8.40
2007,11,12,03,29,3.40
2007,11,12,03,30,5.20
2007,11,12,03,31,3.90
2007,11,12,03,32,1.50
2007,11,12,03,33,4.20
2007,11,12,03,34,4.50
2007,11,12,03,35,7.30
2007,11,12,03,36,6.80
2007,11,12,03,37,4.70
2007,11,12,03,38,1.50
2007,11,12,03,39,0.80
2007,11,12,03,40,2.10
2007,11,12,03,41,3.20
2007,11,12,03,42,1.90
2007,11,12,03,43,2.00
2007,11,12,03,44,2.20
2007,11,12,03,45,1.60
2007,11,12,03,46,4.60
2007,11,12,03,47,9.40
2007,11,12,03,48,8.20
2007,11,12,03,49,6.10
2007,11,12,03,50,4.40
2007,11,12,03,51,2.20
2007,11,12,03,52,3.30
2007,11,12,03,53,6.40
2007,11,12,03,54,6.50
2007,11,12,03,55,7.60
2007,11,12,03,56,3.50
2007,11,12,03,57,3.00
2007,11,12,03,58,5.90
2007,11,12,03,59,5.60
2007,11,12,04,00,6.20
2007,11,12,04,01,3.50
2007,11,12,04,02,5.40
2007,11,12,04,03,9.60
2007,11,12,04,04,5.20
2007,11,12,04,05,5.50
2007,11,12,04,06,3.60
2007,11,12,04,07,0.40
2007,11,12,04,08,3.10
2007,11,12,04,09,4.80
2007,11,12,04,10,5.00
2007,11,12,04,11,4.70
2007,11,12,04,12,3.50
2007,11,12,04,13,8.50
2007,11,12,04,14,5.40
2007,11,12,04,15,4.30
2007,11,12,04,16,3.50
2007,11,12,04,17,2.30
2007,11,12,04,18,1.60
2007,11,12,04,19,4.20
2007,11,12,04,20,3.60
2007,11,12,04,21,12.60
2007,11,12,04,22,6.40
2007,11,12,04,23,2.80
2007,11,12,04,24,7.50
2007,11,12,04,25,3.50
2007,11,12,04,26,2.10
2007,11,12,04,27,1.20
2007,11,12,04,28,5.10
2007,11,12,04,29,4.80
2007,11,12,04,30,3.10
2007,11,12,04,31,6.00
2007,11,12,04,32,15.90
2007,11,12,04,33,6.70
2007,11,12,04,34,2.60
2007,11,12,04,35,5.40
2007,11,12,04,36,10.00
2007,11,12,04,37,7.10
2007,11,12,04,38,2.60
2007,11,12,04,39,2.50
2007,11,12,04,40,2.10
2007,11,12,04,41,4.80
2007,11,12,04,42,11.20
2007,11,12,04,43,10.00
2007,11,12,04,44,14.50
2007,11,12,04,45,4.90
2007,11,12,04,46,11.90
2007,11,12,04,47,17.50
2007,11,12,04,48,7.20
2007,11,12,04,49,11.50
2007,11,12,04,50,5.40
2007,11,12,04,51,7.50
2007,11,12,04,52,12.50
2007,11,12,04,53,22.60
2007,11,12,04,54,20.60
2007,11,12,04,55,7.90
2007,11,12,04,56,16.00
2007,11,12,04,57,10.70
2007,11,12,04,58,13.80
2007,11,12,04,59,13.40
2007,11,12,05,00,5.40
2007,11,12,05,01,6.40
2007,11,12,05,02,14.70
2007,11,12,05,03,14.70
2007,11,12,05,04,14.30
2007,11,12,05,05,9.70
2007,11,12,05,06,12.40
2007,11,12,05,07,6.40
2007,11,12,05,08,13.40
2007,11,12,05,09,5.40
2007,11,12,05,10,9.20
2007,11,12,05,11,10.60
2007,11,12,05,12,20.10
2007,11,12,05,13,17.40
2007,11,12,05,14,12.00
2007,11,12,05,15,8.90
2007,11,12,05,16,10.00
2007,11,12,05,17,14.00
2007,11,12,05,18,16.00
2007,11,12,05,19,15.20
2007,11,12,05,20,8.40
2007,11,12,05,21,18.10
2007,11,12,05,22,20.00
2007,11,12,05,23,12.40
2007,11,12,05,24,8.90
2007,11,12,05,25,17.10
2007,11,12,05,26,21.20
2007,11,12,05,27,22.70
2007,11,12,05,28,23.40
2007,11,12,05,29,21.00
2007,11,12,05,30,18.90
2007,11,12,05,31,24.90
2007,11,12,05,32,22.90
2007,11,12,05,33,16.90
2007,11,12,05,34,35.00
2007,11,12,05,35,25.40
2007,11,12,05,36,24.70
2007,11,12,05,37,21.60
2007,11,12,05,38,19.10
2007,11,12,05,39,8.80
2007,11,12,05,40,24.60
2007,11,12,05,41,15.80
2007,11,12,05,42,23.40
2007,11,12,05,43,24.00
2007,11,12,05,44,21.90
2007,11,12,05,45,22.00
2007,11,12,05,46,29.50
2007,11,12,05,47,33.30
2007,11,12,05,48,21.20
2007,11,12,05,49,22.70
2007,11,12,05,50,23.50
2007,11,12,05,51,13.00
2007,11,12,05,52,21.80
2007,11,12,05,53,21.50
2007,11,12,05,54,20.40
2007,11,12,05,55,31.80
2007,11,12,05,56,29.30
2007,11,12,05,57,31.30
2007,11,12,05,58,9.90
2007,11,12,05,59,18.90
2007,11,12,06,00,20.50
2007,11,12,06,01,12.50
2007,11,12,06,02,18.10
2007,11,12,06,03,25.30
2007,11,12,06,04,21.90
2007,11,12,06,05,13.80
2007,11,12,06,06,23.00
2007,11,12,06,07,18.50
2007,11,12,06,08,21.40
2007,11,12,06,09,20.30
2007,11,12,06,10,12.00
2007,11,12,06,11,19.50
2007,11,12,06,12,26.90
2007,11,12,06,13,13.30
2007,11,12,06,14,15.20
2007,11,12,06,15,25.70
2007,11,12,06,16,23.90
2007,11,12,06,17,25.60
2007,11,12,06,18,22.80
2007,11,12,06,19,25.30
2007,11,12,06,20,25.30
2007,11,12,06,21,27.30
2007,11,12,06,22,16.10
2007,11,12,06,23,18.30
2007,11,12,06,24,6.60
2007,11,12,06,25,18.40
2007,11,12,06,26,17.50
2007,11,12,06,27,21.70
2007,11,12,06,28,17.90
2007,11,12,06,29,14.20
2007,11,12,06,30,9.30
2007,11,12,06,31,21.70
2007,11,12,06,32,25.10
2007,11,12,06,33,19.70
2007,11,12,06,45,30.60
2007,11,12,06,46,20.00
2007,11,12,06,47,14.60
2007,11,12,06,48,27.50
2007,11,12,06,49,23.20
2007,11,12,06,50,23.90
2007,11,12,06,51,36.20
2007,11,12,06,52,14.80
2007,11,12,06,53,26.30
2007,11,12,06,54,20.50
2007,11,12,06,55,18.60
2007,11,12,06,56,19.50
2007,11,12,06,57,29.00
2007,11,12,06,58,17.90
2007,11,12,06,59,27.40
2007,11,12,07,00,22.80
2007,11,12,07,01,19.20
2007,11,12,07,02,42.90
2007,11,12,07,03,26.50
2007,11,12,07,04,36.90
2007,11,12,07,05,23.70
2007,11,12,07,06,29.80
2007,11,12,07,07,16.70
2007,11,12,07,08,30.90
2007,11,12,07,09,22.60
2007,11,12,07,10,33.30
2007,11,12,07,11,25.50
2007,11,12,07,12,22.00
2007,11,12,07,13,28.70
2007,11,12,07,14,20.70
2007,11,12,07,15,22.10
2007,11,12,07,16,25.70
2007,11,12,07,17,32.70
2007,11,12,07,18,26.40
2007,11,12,07,19,27.90
2007,11,12,07,20,16.30
2007,11,12,07,21,19.90
2007,11,12,07,22,23.80
2007,11,12,07,23,14.50
2007,11,12,07,24,20.50
2007,11,12,07,25,18.00
2007,11,12,07,26,29.40
2007,11,12,07,27,32.20
2007,11,12,07,28,23.80
2007,11,12,07,29,29.70
2007,11,12,07,30,28.70
2007,11,12,07,31,25.70
2007,11,12,07,32,14.20
2007,11,12,07,33,30.30
2007,11,12,07,34,25.00
2007,11,12,07,35,23.30
2007,11,12,07,36,16.70
2007,11,12,07,37,23.90
2007,11,12,07,38,20.10
2007,11,12,07,39,30.30
2007,11,12,14,02,5.00
2007,11,12,14,03,4.20
2007,11,12,14,04,2.60
2007,11,12,14,05,3.80
2007,11,12,14,06,2.50
2007,11,12,14,07,4.90
2007,11,12,14,08,8.00
2007,11,12,14,09,4.20
2007,11,12,14,10,2.60
2007,11,12,14,11,2.60
2007,11,12,14,12,0.80
2007,11,12,14,13,8.00
2007,11,12,14,14,6.40
2007,11,12,14,15,7.90
2007,11,12,14,16,3.90
2007,11,12,14,17,5.00
2007,11,12,14,18,3.90
2007,11,12,14,19,5.60
2007,11,12,14,20,4.90
2007,11,12,14,21,7.50
2007,11,12,14,22,9.00
2007,11,12,14,23,4.30
2007,11,12,14,24,4.20
2007,11,12,14,25,10.60
2007,11,12,14,26,6.20
2007,11,12,14,27,10.30
2007,11,12,14,28,5.20
2007,11,12,14,29,4.10
2007,11,12,14,30,5.00
2007,11,12,14,31,7.80
2007,11,12,14,32,9.40
2007,11,12,14,33,10.90
2007,11,12,14,34,10.10
2007,11,12,14,35,10.00
2007,11,12,14,36,6.90
2007,11,12,14,37,7.90
2007,11,12,14,38,7.60
2007,11,12,14,39,4.80
2007,11,12,14,40,5.60
2007,11,12,14,41,7.20
2007,11,12,14,42,6.90
2007,11,12,14,43,9.30
2007,11,12,14,44,5.80
2007,11,12,14,45,4.30
2007,11,12,14,46,12.10
2007,11,12,14,47,8.40
2007,11,12,14,48,5.40
2007,11,12,14,49,12.40
2007,11,12,14,50,9.30
2007,11,12,14,51,9.40
2007,11,12,14,52,16.70
2007,11,12,14,53,13.20
2007,11,12,14,54,7.10
2007,11,12,14,55,4.60
2007,11,12,14,56,4.10
2007,11,12,14,57,10.90
2007,11,12,14,58,3.70
2007,11,12,14,59,3.10
2007,11,12,15,00,11.20
2007,11,12,15,01,11.80
2007,11,12,15,02,5.10
2007,11,12,15,03,4.20
2007,11,12,15,04,5.00
2007,11,12,15,05,4.70
2007,11,12,15,06,7.60
2007,11,12,15,07,4.40
2007,11,12,15,08,8.60
2007,11,12,15,09,6.90
2007,11,12,15,10,10.60
2007,11,12,15,11,5.10
2007,11,12,15,12,8.10
2007,11,12,15,13,7.60
2007,11,12,15,14,2.10
2007,11,12,15,15,2.90
2007,11,12,15,16,2.50
2007,11,12,15,17,2.20
2007,11,12,15,18,5.90
2007,11,12,15,19,5.10
2007,11,12,15,20,3.60
2007,11,12,15,21,10.70
2007,11,12,15,22,7.50
2007,11,12,15,23,5.00
2007,11,12,15,24,7.00
2007,11,12,15,25,15.10
2007,11,12,15,26,2.70
2007,11,12,15,27,3.30
2007,11,12,15,28,17.50
2007,11,12,15,29,10.50
2007,11,12,15,30,3.50
2007,11,12,15,31,4.90
2007,11,12,15,32,1.50
2007,11,12,15,33,2.20
2007,11,12,15,34,3.50
2007,11,12,15,35,3.90
2007,11,12,15,36,2.70
2007,11,12,15,37,4.50
2007,11,12,15,38,1.80
2007,11,12,15,39,3.70
2007,11,12,15,40,2.30
2007,11,12,15,41,2.80
2007,11,12,15,42,2.60
2007,11,12,15,43,1.50
2007,11,12,15,44,4.20
2007,11,12,15,45,4.40
2007,11,12,15,46,1.90
2007,11,12,15,47,3.90
2007,11,12,15,48,6.20
2007,11,12,15,49,6.90
2007,11,12,15,50,4.70
2007,11,12,15,51,8.50
2007,11,12,15,52,8.40
2007,11,12,15,53,3.40
2007,11,12,15,54,3.50
2007,11,12,15,55,6.50
2007,11,12,15,56,3.70
2007,11,12,15,57,6.20
2007,11,12,15,58,6.20
2007,11,12,15,59,6.50
2007,11,12,16,00,6.60
2007,11,12,16,01,6.00
2007,11,12,16,02,2.90
2007,11,12,16,03,4.50
2007,11,12,16,04,1.40
2007,11,12,16,05,2.70
2007,11,12,16,06,1.90
2007,11,12,16,07,5.10
2007,11,12,16,08,2.80
2007,11,12,16,09,6.30
2007,11,12,16,10,4.30
2007,11,12,16,11,1.80
2007,11,12,16,12,1.30
2007,11,12,16,13,1.70
2007,11,12,16,14,5.70
2007,11,12,16,15,5.60
2007,11,12,16,16,5.10
2007,11,12,16,17,4.80
2007,11,12,16,18,3.40
2007,11,12,16,19,7.40
2007,11,12,16,20,3.90
2007,11,12,16,21,2.40
2007,11,12,16,22,5.40
2007,11,12,16,23,9.30
2007,11,12,16,24,8.30
2007,11,12,16,25,4.70
2007,11,12,16,26,9.70
2007,11,12,16,27,9.70
2007,11,12,16,28,5.70
2007,11,12,16,29,8.50
2007,11,12,16,30,4.30
2007,11,12,16,31,3.30
2007,11,12,16,32,8.00
2007,11,12,16,33,6.60
2007,11,12,16,34,3.90
2007,11,12,16,35,5.80
2007,11,12,16,36,2.30
2007,11,12,16,37,7.10
2007,11,12,16,38,2.80
2007,11,12,16,39,4.50
2007,11,12,16,40,3.30
2007,11,12,16,41,4.10
2007,11,12,16,42,4.80
2007,11,12,16,43,5.70
2007,11,12,16,44,3.20
2007,11,12,16,45,5.60
2007,11,12,16,46,4.10
2007,11,12,16,47,0.50
2007,11,12,16,48,3.90
2007,11,12,16,49,7.50
2007,11,12,16,50,3.40
2007,11,12,16,51,1.30
2007,11,12,16,52,1.60
2007,11,12,16,53,5.10
2007,11,12,16,54,4.80
2007,11,12,16,55,2.50
2007,11,12,16,56,1.20
2007,11,12,16,57,2.50
2007,11,12,16,58,2.30
2007,11,12,16,59,2.40
2007,11,12,17,00,2.70
2007,11,12,17,01,3.90
2007,11,12,17,02,3.70
2007,11,12,17,03,2.20
2007,11,12,17,04,0.00
2007,11,12,17,05,2.10
2007,11,12,17,06,4.50
2007,11,12,17,07,0.20
2007,11,12,17,08,1.80
2007,11,12,17,09,0.50
2007,11,12,17,10,2.30
2007,11,12,17,11,0.80
2007,11,12,17,12,0.00
2007,11,12,17,13,0.00
2007,11,12,17,14,1.10
2007,11,12,17,15,4.10
2007,11,12,17,16,0.80
2007,11,12,17,17,2.50
2007,11,12,17,18,4.80
2007,11,12,17,19,5.10
2007,11,12,17,20,1.00
2007,11,12,17,21,0.40
2007,11,12,17,22,1.90
2007,11,12,17,23,1.90
2007,11,12,17,24,1.10
2007,11,12,17,25,1.00
2007,11,12,17,26,3.30
2007,11,12,17,27,4.80
2007,11,12,17,28,4.30
2007,11,12,17,29,0.80
2007,11,12,17,30,4.20
2007,11,12,17,31,5.00
2007,11,12,17,32,4.20
2007,11,12,17,33,2.50
2007,11,12,17,34,2.30
2007,11,12,17,35,0.80
2007,11,12,17,36,0.00
2007,11,12,17,37,4.10
2007,11,12,17,38,2.60
2007,11,12,17,39,5.00
2007,11,12,17,40,3.40
2007,11,12,17,41,5.30
2007,11,12,17,42,5.50
2007,11,12,17,43,1.50
2007,11,12,17,44,0.10
2007,11,12,17,45,0.00
2007,11,12,17,46,0.10
2007,11,12,17,47,0.80
2007,11,12,17,48,2.70
2007,11,12,17,49,4.40
2007,11,12,17,50,3.50
2007,11,12,17,51,4.00
2007,11,12,17,52,4.00
2007,11,12,17,53,2.70
2007,11,12,17,54,3.40
2007,11,12,17,55,4.60
2007,11,12,17,56,2.30
2007,11,12,17,57,2.30
2007,11,12,17,58,5.10
2007,11,12,17,59,6.20
2007,11,12,18,00,5.40
2007,11,12,18,01,3.60
2007,11,12,18,02,4.40
2007,11,12,18,03,4.10
2007,11,12,18,04,3.00
2007,11,12,18,05,1.90
2007,11,12,18,06,1.30
2007,11,12,18,07,3.90
2007,11,12,18,08,0.20
2007,11,12,18,09,0.00
2007,11,12,18,10,0.00
2007,11,12,18,11,1.20
2007,11,12,18,12,0.30
2007,11,12,18,13,1.00
2007,11,12,18,14,0.00
2007,11,12,18,15,2.60
2007,11,12,18,16,1.80
2007,11,12,18,17,1.40
2007,11,12,18,18,0.00
2007,11,12,18,19,0.00
2007,11,12,18,20,1.00
2007,11,12,18,21,2.90
2007,11,12,18,22,1.50
2007,11,12,18,23,0.60
2007,11,12,18,24,1.50
2007,11,12,18,25,2.70
2007,11,12,18,26,3.20
2007,11,12,18,27,2.40
2007,11,12,18,28,0.00
2007,11,12,18,29,0.00
2007,11,12,18,30,0.00
2007,11,12,18,31,0.00
2007,11,12,18,32,0.60
2007,11,12,18,33,2.30
2007,11,12,18,34,2.20
2007,11,12,18,35,1.70
2007,11,12,18,36,1.10
2007,11,12,18,37,0.10
2007,11,12,18,38,2.70
2007,11,12,18,39,3.40
2007,11,12,18,40,3.40
2007,11,12,18,41,2.00
2007,11,12,18,42,2.50
2007,11,12,18,43,2.80
2007,11,12,18,44,3.90
2007,11,12,18,45,1.80
2007,11,12,18,46,3.70
2007,11,12,18,47,3.40
2007,11,12,18,48,2.90
2007,11,12,18,49,3.60
2007,11,12,18,50,4.30
2007,11,12,18,51,3.30
2007,11,12,18,52,1.80
2007,11,12,18,53,3.00
2007,11,12,18,54,0.50
2007,11,12,18,55,3.50
2007,11,12,18,56,4.60
2007,11,12,18,57,1.00
2007,11,12,18,58,3.40
2007,11,12,18,59,2.50
2007,11,12,19,00,2.40
2007,11,12,19,01,1.00
2007,11,12,19,02,3.30
2007,11,12,19,03,4.00
2007,11,12,19,04,3.50
2007,11,12,19,05,2.60
2007,11,12,19,06,6.10
2007,11,12,19,07,2.20
2007,11,12,19,08,1.70
2007,11,12,19,09,3.70
2007,11,12,19,10,3.10
2007,11,12,19,11,2.50
2007,11,12,19,12,1.80
2007,11,12,19,13,12.70
2007,11,12,19,14,5.10
2007,11,12,19,15,1.10
2007,11,12,19,16,3.70
2007,11,12,19,17,4.10
2007,11,12,19,18,1.80
2007,11,12,19,19,1.60
2007,11,12,19,20,3.10
2007,11,12,19,21,3.20
2007,11,12,19,22,1.90
2007,11,12,19,23,1.10
2007,11,12,19,24,0.60
2007,11,12,19,25,3.00
2007,11,12,19,26,3.10
2007,11,12,19,27,6.00
2007,11,12,19,28,7.90
2007,11,12,19,29,4.40
2007,11,12,19,30,6.10
2007,11,12,19,31,6.00
2007,11,12,19,32,6.10
2007,11,12,19,33,2.50
2007,11,12,19,34,3.00
2007,11,12,19,35,4.50
2007,11,12,19,36,3.00
2007,11,12,19,37,3.00
2007,11,12,19,38,4.80
2007,11,12,19,39,3.70
2007,11,12,19,40,3.50
2007,11,12,19,41,6.40
2007,11,12,19,42,6.20
2007,11,12,19,43,4.80
2007,11,12,19,44,1.30
2007,11,12,19,45,4.30
2007,11,12,19,46,1.80
2007,11,12,19,47,0.70
2007,11,12,19,48,2.20
2007,11,12,19,49,3.10
2007,11,12,19,50,5.50
2007,11,12,19,51,3.70
2007,11,12,19,52,2.70
2007,11,12,19,53,3.10
2007,11,12,19,54,1.90
2007,11,12,19,55,4.30
2007,11,12,19,56,3.00
2007,11,12,19,57,4.90
2007,11,12,19,58,3.30
2007,11,12,19,59,5.60
2007,11,12,20,00,7.50
2007,11,12,20,01,5.70
2007,11,12,20,02,3.40
2007,11,12,20,03,5.90
2007,11,12,20,04,4.00
2007,11,12,20,05,3.30
2007,11,12,20,06,3.30
2007,11,12,20,07,5.70
2007,11,12,20,08,4.20
2007,11,12,20,09,4.00
2007,11,12,20,10,4.10
2007,11,12,20,11,5.00
2007,11,12,20,12,3.40
2007,11,12,20,13,5.80
2007,11,12,20,14,4.60
2007,11,12,20,15,3.30
2007,11,12,20,16,3.60
2007,11,12,20,17,5.10
2007,11,12,20,18,4.80
2007,11,12,20,19,5.50
2007,11,12,20,20,7.50
2007,11,12,20,21,10.70
2007,11,12,20,22,6.10
2007,11,12,20,23,3.10
2007,11,12,20,24,3.80
2007,11,12,20,25,2.60
2007,11,12,20,26,1.20
2007,11,12,20,27,5.00
2007,11,12,20,28,5.60
2007,11,12,20,29,4.70
2007,11,12,20,30,3.50
2007,11,12,20,31,3.70
2007,11,12,20,32,7.20
2007,11,12,20,33,7.30
2007,11,12,20,34,3.10
2007,11,12,20,35,3.80
2007,11,12,20,36,4.20
2007,11,12,20,37,3.20
2007,11,12,20,38,3.00
2007,11,12,20,39,3.70
2007,11,12,20,40,2.70
2007,11,12,20,41,2.30
2007,11,12,20,42,4.30
2007,11,12,20,43,0.80
2007,11,12,20,44,6.20
2007,11,12,20,45,1.60
2007,11,12,20,46,2.00
2007,11,12,20,47,6.40
2007,11,12,20,48,6.90
2007,11,12,20,49,7.50
2007,11,12,20,50,6.10
2007,11,12,20,51,9.30
2007,11,12,20,52,6.70
2007,11,12,20,53,5.80
2007,11,12,20,54,3.50
2007,11,12,20,55,5.10
2007,11,12,20,56,8.20
2007,11,12,20,57,7.10
2007,11,12,20,58,4.60
2007,11,12,20,59,7.10
2007,11,12,21,00,6.10
2007,11,12,21,01,11.30
2007,11,12,21,02,6.50
2007,11,12,21,03,2.40
2007,11,12,21,04,4.40
2007,11,12,21,05,3.70
2007,11,12,21,06,5.70
2007,11,12,21,07,2.20
2007,11,12,21,08,3.70
2007,11,12,21,09,3.00
2007,11,12,21,10,3.20
2007,11,12,21,11,4.40
2007,11,12,21,12,2.30
2007,11,12,21,13,1.10
2007,11,12,21,14,3.50
2007,11,12,21,15,5.20
2007,11,12,21,16,4.60
2007,11,12,21,17,5.30
2007,11,12,21,18,6.00
2007,11,12,21,19,3.60
2007,11,12,21,20,4.10
2007,11,12,21,21,4.70
2007,11,12,21,22,3.10
2007,11,12,21,23,2.00
2007,11,12,21,24,4.30
2007,11,12,21,25,3.10
2007,11,12,21,26,3.70
2007,11,12,21,27,7.80
2007,11,12,21,28,2.20
2007,11,12,21,29,1.50
2007,11,12,21,30,1.40
2007,11,12,21,31,1.70
2007,11,12,21,32,2.80
2007,11,12,21,33,2.40
2007,11,12,21,34,4.80
2007,11,12,21,35,3.20
2007,11,12,21,36,3.80
2007,11,12,21,37,4.10
2007,11,12,21,38,6.20
2007,11,12,21,39,5.80
2007,11,12,21,40,7.70
2007,11,12,21,41,8.40
2007,11,12,21,42,4.10
2007,11,12,21,43,6.40
2007,11,12,21,44,5.70
2007,11,12,21,45,3.30
2007,11,12,21,46,2.80
2007,11,12,21,47,1.30
2007,11,12,21,48,3.90
2007,11,12,21,49,4.10
2007,11,12,21,50,2.80
2007,11,12,21,51,3.10
2007,11,12,21,52,4.70
2007,11,12,21,53,6.40
2007,11,12,21,54,5.30
2007,11,12,21,55,4.20
2007,11,12,21,56,2.10
2007,11,12,21,57,5.40
2007,11,12,21,58,4.10
2007,11,12,21,59,2.00
2007,11,12,22,00,4.50
2007,11,12,22,01,6.00
2007,11,12,22,02,2.80
2007,11,12,22,03,4.30
2007,11,12,22,04,1.00
2007,11,12,22,05,3.40
2007,11,12,22,06,3.90
2007,11,12,22,07,2.00
2007,11,12,22,08,2.60
2007,11,12,22,09,3.50
2007,11,12,22,10,3.10
2007,11,12,22,11,3.30
2007,11,12,22,12,4.20
2007,11,12,22,13,1.50
2007,11,12,22,14,2.90
2007,11,12,22,15,3.70
2007,11,12,22,16,2.90
2007,11,12,22,17,1.40
2007,11,12,22,18,3.10
2007,11,12,22,19,4.80
2007,11,12,22,20,1.60
2007,11,12,22,21,2.50
2007,11,12,22,22,5.90
2007,11,12,22,23,2.40
2007,11,12,22,24,1.90
2007,11,12,22,25,3.60
2007,11,12,22,26,2.70
2007,11,12,22,27,2.10
2007,11,12,22,28,0.90
2007,11,12,22,29,1.50
2007,11,12,22,30,1.10
2007,11,12,22,31,4.40
2007,11,12,22,32,7.20
2007,11,12,22,33,2.70
2007,11,12,22,34,1.60
2007,11,12,22,35,1.90
2007,11,12,22,36,2.90
2007,11,12,22,37,3.30
2007,11,12,22,38,1.70
2007,11,12,22,39,2.00
2007,11,12,22,40,1.90
2007,11,12,22,41,1.00
2007,11,12,22,42,3.90
2007,11,12,22,43,3.50
2007,11,12,22,44,3.60
2007,11,12,22,45,1.40
2007,11,12,22,46,5.90
2007,11,12,22,47,0.70
2007,11,12,22,48,5.80
2007,11,12,22,49,1.60
2007,11,12,22,50,2.90
2007,11,12,22,51,4.80
2007,11,12,22,52,5.90
2007,11,12,22,53,6.70
2007,11,12,22,54,3.10
2007,11,12,22,55,3.10
2007,11,12,22,56,2.30
2007,11,12,22,57,3.10
2007,11,12,22,58,2.10
2007,11,12,22,59,3.60
2007,11,12,23,00,2.60
2007,11,12,23,01,1.40
2007,11,12,23,02,3.00
2007,11,12,23,03,1.60
2007,11,12,23,04,3.90
2007,11,12,23,05,2.30
2007,11,12,23,06,2.50
2007,11,12,23,07,7.60
2007,11,12,23,08,5.60
2007,11,12,23,09,4.40
2007,11,12,23,10,4.80
2007,11,12,23,11,6.00
2007,11,12,23,12,3.50
2007,11,12,23,13,4.90
2007,11,12,23,14,4.00
2007,11,12,23,15,4.10
2007,11,12,23,16,3.80
2007,11,12,23,17,4.10
2007,11,12,23,18,3.60
2007,11,12,23,19,3.10
2007,11,12,23,20,1.40
2007,11,12,23,21,3.00
2007,11,12,23,22,5.30
2007,11,12,23,23,3.60
2007,11,12,23,24,8.40
2007,11,12,23,25,4.90
2007,11,12,23,26,2.20
2007,11,12,23,27,7.20
2007,11,12,23,28,3.50
2007,11,12,23,29,5.70
2007,11,12,23,30,3.00
2007,11,12,23,31,4.00
2007,11,12,23,32,3.90
2007,11,12,23,33,2.70
2007,11,12,23,34,4.20
2007,11,12,23,35,5.30
2007,11,12,23,36,7.60
2007,11,12,23,37,9.30
2007,11,12,23,38,6.70
2007,11,12,23,39,3.10
2007,11,12,23,40,7.20
2007,11,12,23,41,6.20
2007,11,12,23,42,9.20
2007,11,12,23,43,2.80
2007,11,12,23,44,3.90
2007,11,12,23,45,5.80
2007,11,12,23,46,3.50
2007,11,12,23,47,1.20
2007,11,12,23,48,3.30
2007,11,12,23,49,2.00
2007,11,12,23,50,2.00
2007,11,12,23,51,4.30
2007,11,12,23,52,1.90
2007,11,12,23,53,2.00
2007,11,12,23,54,4.10
2007,11,12,23,55,2.90
2007,11,12,23,56,3.70
2007,11,12,23,57,4.60
2007,11,12,23,58,7.50
2007,11,12,23,59,3.30
